| time (UTC) | temp F | wind direction | speed MPH | gust MPH | rain 1hr in | rain 24hr in | rain mn in | humidity % | barometer mb |
| 20260904172028 | 76 | 248 | 1.0 | 2.0 | 0.00 | 0.00 | 0.00 | 74 | 1016.4 |
| 20260904171513 | 76 | 248 | 1.0 | 2.0 | 0.00 | 0.00 | 0.00 | 73 | 1016.4 |
| 20260904171015 | 77 | 248 | 1.0 | 2.0 | 0.00 | 0.00 | 0.00 | 73 | 1016.4 |
| 20260904170524 | 77 | 248 | 0.0 | 2.0 | 0.00 | 0.00 | 0.00 | 73 | 1016.4 |
| 20260904170019 | 77 | 248 | 0.0 | 2.0 | 0.00 | 0.00 | 0.00 | 72 | 1016.4 |
| 20260904165525 | 78 | 248 | 1.0 | 1.0 | 0.00 | 0.00 | 0.00 | 72 | 1016.4 |
| 20260904165047 | 78 | 248 | 0.0 | 1.0 | 0.00 | 0.00 | 0.00 | 72 | 1016.4 |
| 20260904164513 | 78 | 248 | 0.0 | 1.0 | 0.00 | 0.00 | 0.00 | 72 | 1016.4 |
| 20260904164036 | 79 | 248 | 0.0 | 1.0 | 0.00 | 0.00 | 0.00 | 71 | 1016.4 |
| 20260904163522 | 79 | 248 | 0.0 | 1.0 | 0.00 | 0.00 | 0.00 | 71 | 1016.4 |
| 20260904163017 | 79 | 248 | 0.0 | 1.0 | 0.00 | 0.00 | 0.00 | 70 | 1016.4 |
| 20260904162523 | 80 | 248 | 0.0 | 1.0 | 0.00 | 0.00 | 0.00 | 69 | 1016.3 |
| 20260904162047 | 80 | 248 | 1.0 | 2.0 | 0.00 | 0.00 | 0.00 | 70 | 1016.4 |
| 20260904161512 | 80 | 248 | 1.0 | 3.0 | 0.00 | 0.00 | 0.00 | 68 | 1016.4 |
| 20260904161017 | 81 | 248 | 1.0 | 4.0 | 0.00 | 0.00 | 0.00 | 68 | 1016.4 |
| 20260904160523 | 82 | 248 | 2.0 | 4.0 | 0.00 | 0.00 | 0.00 | 65 | 1016.4 |
| 20260904160017 | 83 | 246 | 2.0 | 5.0 | 0.00 | 0.00 | 0.00 | 62 | 1016.4 |
| 20260904155527 | 84 | 247 | 2.0 | 5.0 | 0.00 | 0.00 | 0.00 | 62 | 1016.4 |
| 20260904155049 | 84 | 250 | 2.0 | 5.0 | 0.00 | 0.00 | 0.00 | 58 | 1016.4 |
| 20260904154512 | 85 | 250 | 3.0 | 5.0 | 0.00 | 0.00 | 0.00 | 56 | 1016.5 |
| 20260904154015 | 85 | 251 | 2.0 | 5.0 | 0.00 | 0.00 | 0.00 | 57 | 1016.5 |
| 20260904153521 | 86 | 239 | 2.0 | 5.0 | 0.00 | 0.00 | 0.00 | 56 | 1016.6 |
| 20260904153015 | 86 | 225 | 2.0 | 4.0 | 0.00 | 0.00 | 0.00 | 55 | 1016.6 |
| 20260904152522 | 87 | 224 | 2.0 | 5.0 | 0.00 | 0.00 | 0.00 | 53 | 1016.6 |
| 20260904152023 | 88 | 220 | 1.0 | 5.0 | 0.00 | 0.00 | 0.00 | 52 | 1016.6 |
| 20260904151529 | 88 | 228 | 1.0 | 4.0 | 0.00 | 0.00 | 0.00 | 53 | 1016.7 |
| 20260904151030 | 89 | 227 | 2.0 | 4.0 | 0.00 | 0.00 | 0.00 | 53 | 1016.8 |
| 20260904150516 | 89 | 232 | 2.0 | 5.0 | 0.00 | 0.00 | 0.00 | 50 | 1016.8 |
| 20260904150012 | 89 | 227 | 3.0 | 5.0 | 0.00 | 0.00 | 0.00 | 50 | 1016.8 |
| 20260904145517 | 90 | 221 | 2.0 | 5.0 | 0.00 | 0.00 | 0.00 | 49 | 1016.9 |
| 20260904145020 | 90 | 221 | 2.0 | 6.0 | 0.00 | 0.00 | 0.00 | 48 | 1016.8 |
| 20260904144511 | 90 | 217 | 3.0 | 6.0 | 0.00 | 0.00 | 0.00 | 48 | 1016.8 |
| 20260904144014 | 90 | 223 | 3.0 | 6.0 | 0.00 | 0.00 | 0.00 | 48 | 1016.9 |
| 20260904143519 | 90 | 217 | 2.0 | 6.0 | 0.00 | 0.00 | 0.00 | 49 | 1017.0 |
| 20260904143012 | 90 | 217 | 2.0 | 5.0 | 0.00 | 0.00 | 0.00 | 51 | 1017.0 |
| 20260904142519 | 90 | 195 | 3.0 | 5.0 | 0.00 | 0.00 | 0.00 | 50 | 1017.0 |
| 20260904142020 | 91 | 199 | 3.0 | 8.0 | 0.00 | 0.00 | 0.00 | 50 | 1017.1 |
| 20260904141525 | 91 | 195 | 4.0 | 8.0 | 0.00 | 0.00 | 0.00 | 47 | 1017.2 |
| 20260904141029 | 91 | 191 | 4.0 | 7.0 | 0.00 | 0.00 | 0.00 | 48 | 1017.2 |
| 20260904140516 | 91 | 215 | 3.0 | 6.0 | 0.00 | 0.00 | 0.00 | 47 | 1017.2 |
| 20260904140050 | 91 | 240 | 3.0 | 6.0 | 0.00 | 0.00 | 0.00 | 47 | 1017.2 |
| 20260904135514 | 91 | 204 | 2.0 | 9.0 | 0.00 | 0.00 | 0.00 | 47 | 1017.3 |
| 20260904135017 | 91 | 208 | 6.0 | 9.0 | 0.00 | 0.00 | 0.00 | 46 | 1017.4 |
| 20260904134523 | 91 | 207 | 3.0 | 7.0 | 0.00 | 0.00 | 0.00 | 48 | 1017.4 |
| 20260904134028 | 91 | 212 | 3.0 | 11.0 | 0.00 | 0.00 | 0.00 | 45 | 1017.3 |
| 20260904133513 | 91 | 190 | 5.0 | 11.0 | 0.00 | 0.00 | 0.00 | 47 | 1017.4 |
| 20260904133028 | 91 | 228 | 3.0 | 8.0 | 0.00 | 0.00 | 0.00 | 48 | 1017.3 |
| 20260904132515 | 91 | 194 | 3.0 | 6.0 | 0.00 | 0.00 | 0.00 | 47 | 1017.3 |
| 20260904132016 | 91 | 205 | 3.0 | 6.0 | 0.00 | 0.00 | 0.00 | 46 | 1017.4 |
| 20260904131521 | 91 | 184 | 3.0 | 7.0 | 0.00 | 0.00 | 0.00 | 46 | 1017.4 |
| 20260904131044 | 91 | 203 | 3.0 | 7.0 | 0.00 | 0.00 | 0.00 | 47 | 1017.5 |
| 20260904130549 | 91 | 227 | 2.0 | 8.0 | 0.00 | 0.00 | 0.00 | 47 | 1017.4 |
| 20260904130022 | 91 | 196 | 4.0 | 8.0 | 0.00 | 0.00 | 0.00 | 48 | 1017.6 |
| 20260904125527 | 91 | 194 | 3.0 | 7.0 | 0.00 | 0.00 | 0.00 | 47 | 1017.6 |
| 20260904125029 | 91 | 218 | 3.0 | 10.0 | 0.00 | 0.00 | 0.00 | 46 | 1017.6 |
| 20260904124516 | 91 | 160 | 4.0 | 10.0 | 0.00 | 0.00 | 0.00 | 45 | 1017.6 |
| 20260904124016 | 91 | 159 | 2.0 | 7.0 | 0.00 | 0.00 | 0.00 | 46 | 1017.7 |
| 20260904123521 | 91 | 209 | 2.0 | 5.0 | 0.00 | 0.00 | 0.00 | 47 | 1017.7 |
| 20260904123015 | 91 | 201 | 3.0 | 7.0 | 0.00 | 0.00 | 0.00 | 46 | 1017.8 |
| 20260904122524 | 91 | 232 | 4.0 | 7.0 | 0.00 | 0.00 | 0.00 | 45 | 1017.9 |
| 20260904122047 | 91 | 212 | 4.0 | 7.0 | 0.00 | 0.00 | 0.00 | 47 | 1018.0 |
| 20260904121512 | 91 | 221 | 3.0 | 7.0 | 0.00 | 0.00 | 0.00 | 47 | 1018.0 |
| 20260904121012 | 91 | 202 | 2.0 | 7.0 | 0.00 | 0.00 | 0.00 | 47 | 1018.1 |
| 20260904120538 | 91 | 200 | 2.0 | 7.0 | 0.00 | 0.00 | 0.00 | 49 | 1018.1 |
| 20260904120011 | 91 | 200 | 3.0 | 8.0 | 0.00 | 0.00 | 0.00 | 47 | 1018.1 |
| 20260904115516 | 90 | 211 | 3.0 | 8.0 | 0.00 | 0.00 | 0.00 | 47 | 1018.1 |
| 20260904115019 | 90 | 224 | 3.0 | 8.0 | 0.00 | 0.00 | 0.00 | 49 | 1018.1 |
| 20260904114526 | 90 | 162 | 2.0 | 7.0 | 0.00 | 0.00 | 0.00 | 47 | 1018.2 |
| 20260904114027 | 90 | 94 | 4.0 | 7.0 | 0.00 | 0.00 | 0.00 | 46 | 1018.2 |
| 20260904113513 | 90 | 191 | 2.0 | 6.0 | 0.00 | 0.00 | 0.00 | 48 | 1018.3 |
| 20260904113028 | 90 | 170 | 3.0 | 8.0 | 0.00 | 0.00 | 0.00 | 48 | 1018.3 |
| 20260904112514 | 90 | 208 | 1.0 | 8.0 | 0.00 | 0.00 | 0.00 | 49 | 1018.4 |
| 20260904112017 | 90 | 218 | 4.0 | 7.0 | 0.00 | 0.00 | 0.00 | 48 | 1018.4 |
| 20260904111521 | 90 | 192 | 3.0 | 7.0 | 0.00 | 0.00 | 0.00 | 49 | 1018.4 |
| 20260904111026 | 90 | 224 | 3.0 | 7.0 | 0.00 | 0.00 | 0.00 | 47 | 1018.4 |
| 20260904110514 | 90 | 212 | 2.0 | 10.0 | 0.00 | 0.00 | 0.00 | 48 | 1018.5 |
| 20260904110029 | 90 | 240 | 5.0 | 9.0 | 0.00 | 0.00 | 0.00 | 46 | 1018.4 |
| 20260904105517 | 90 | 207 | 3.0 | 6.0 | 0.00 | 0.00 | 0.00 | 48 | 1018.4 |
| 20260904105041 | 89 | 182 | 2.0 | 7.0 | 0.00 | 0.00 | 0.00 | 50 | 1018.4 |
| 20260904104525 | 89 | 215 | 3.0 | 7.0 | 0.00 | 0.00 | 0.00 | 46 | 1018.4 |
| 20260904104025 | 89 | 200 | 3.0 | 7.0 | 0.00 | 0.00 | 0.00 | 50 | 1018.4 |
| 20260904103513 | 88 | 63 | 1.0 | 3.0 | 0.00 | 0.00 | 0.00 | 49 | 1018.4 |
| 20260904103049 | 88 | 63 | 2.0 | 3.0 | 0.00 | 0.00 | 0.00 | 49 | 1018.5 |
| 20260904102534 | 88 | 61 | 2.0 | 5.0 | 0.00 | 0.00 | 0.00 | 49 | 1018.5 |
| 20260904102015 | 87 | 61 | 3.0 | 5.0 | 0.00 | 0.00 | 0.00 | 48 | 1018.6 |
| 20260904101522 | 87 | 60 | 3.0 | 4.0 | 0.00 | 0.00 | 0.00 | 50 | 1018.7 |
| 20260904101025 | 87 | 60 | 2.0 | 4.0 | 0.00 | 0.00 | 0.00 | 50 | 1018.7 |
| 20260904100551 | 87 | 61 | 2.0 | 4.0 | 0.00 | 0.00 | 0.00 | 51 | 1018.7 |
| 20260904100025 | 86 | 62 | 2.0 | 4.0 | 0.00 | 0.00 | 0.00 | 51 | 1018.8 |
| 20260904095511 | 86 | 61 | 2.0 | 4.0 | 0.00 | 0.00 | 0.00 | 53 | 1018.9 |
| 20260904095013 | 85 | 61 | 3.0 | 4.0 | 0.00 | 0.00 | 0.00 | 53 | 1019.0 |
| 20260904094518 | 85 | 62 | 2.0 | 4.0 | 0.00 | 0.00 | 0.00 | 53 | 1019.1 |
| 20260904094024 | 84 | 62 | 3.0 | 4.0 | 0.00 | 0.00 | 0.00 | 54 | 1019.1 |
| 20260904093529 | 84 | 62 | 3.0 | 5.0 | 0.00 | 0.00 | 0.00 | 55 | 1019.1 |
| 20260904093024 | 84 | 63 | 3.0 | 5.0 | 0.00 | 0.00 | 0.00 | 54 | 1019.1 |
| 20260904092530 | 83 | 67 | 3.0 | 5.0 | 0.00 | 0.00 | 0.00 | 55 | 1019.1 |
| 20260904092012 | 83 | 70 | 3.0 | 5.0 | 0.00 | 0.00 | 0.00 | 55 | 1019.1 |
| 20260904091518 | 83 | 75 | 3.0 | 5.0 | 0.00 | 0.00 | 0.00 | 55 | 1019.2 |
| 20260904091019 | 83 | 81 | 2.0 | 6.0 | 0.00 | 0.00 | 0.00 | 56 | 1019.2 |
| 20260904090523 | 83 | 85 | 3.0 | 4.0 | 0.00 | 0.00 | 0.00 | 56 | 1019.3 |
| 20260904090016 | 82 | 90 | 2.0 | 4.0 | 0.00 | 0.00 | 0.00 | 57 | 1019.3 |
| 20260904085521 | 82 | 91 | 3.0 | 4.0 | 0.00 | 0.00 | 0.00 | 57 | 1019.3 |
| 20260904085026 | 81 | 94 | 2.0 | 4.0 | 0.00 | 0.00 | 0.00 | 59 | 1019.3 |
| 20260904084514 | 81 | 96 | 2.0 | 4.0 | 0.00 | 0.00 | 0.00 | 59 | 1019.3 |
| 20260904084017 | 81 | 96 | 3.0 | 6.0 | 0.00 | 0.00 | 0.00 | 59 | 1019.4 |
| 20260904083527 | 80 | 98 | 2.0 | 6.0 | 0.00 | 0.00 | 0.00 | 60 | 1019.4 |
| 20260904083021 | 80 | 111 | 2.0 | 4.0 | 0.00 | 0.00 | 0.00 | 60 | 1019.4 |
| 20260904082527 | 79 | 114 | 2.0 | 4.0 | 0.00 | 0.00 | 0.00 | 62 | 1019.4 |
| 20260904082029 | 79 | 121 | 2.0 | 4.0 | 0.00 | 0.00 | 0.00 | 64 | 1019.4 |
| 20260904081516 | 78 | 126 | 2.0 | 4.0 | 0.00 | 0.00 | 0.00 | 63 | 1019.4 |
| 20260904081018 | 78 | 136 | 3.0 | 5.0 | 0.00 | 0.00 | 0.00 | 63 | 1019.4 |
| 20260904080524 | 78 | 142 | 3.0 | 5.0 | 0.00 | 0.00 | 0.00 | 62 | 1019.4 |
| 20260904080017 | 78 | 155 | 2.0 | 5.0 | 0.00 | 0.00 | 0.00 | 64 | 1019.4 |
| 20260904075525 | 78 | 159 | 2.0 | 4.0 | 0.00 | 0.00 | 0.00 | 65 | 1019.4 |
| 20260904075049 | 77 | 162 | 2.0 | 3.0 | 0.00 | 0.00 | 0.00 | 64 | 1019.4 |
| 20260904074514 | 77 | 162 | 2.0 | 5.0 | 0.00 | 0.00 | 0.00 | 66 | 1019.5 |
| 20260904074037 | 77 | 163 | 1.0 | 5.0 | 0.00 | 0.00 | 0.00 | 65 | 1019.5 |
| 20260904073523 | 76 | 166 | 2.0 | 4.0 | 0.00 | 0.00 | 0.00 | 68 | 1019.5 |
| 20260904073038 | 75 | 166 | 2.0 | 5.0 | 0.00 | 0.00 | 0.00 | 69 | 1019.5 |
| 20260904072545 | 75 | 166 | 3.0 | 5.0 | 0.00 | 0.00 | 0.00 | 68 | 1019.5 |
| 20260904072031 | 74 | 167 | 2.0 | 5.0 | 0.00 | 0.00 | 0.00 | 71 | 1019.6 |
| 20260904071517 | 73 | 167 | 2.0 | 5.0 | 0.00 | 0.00 | 0.00 | 71 | 1019.6 |
| 20260904071021 | 73 | 171 | 3.0 | 6.0 | 0.00 | 0.00 | 0.00 | 72 | 1019.6 |
| 20260904070528 | 72 | 188 | 3.0 | 5.0 | 0.00 | 0.00 | 0.00 | 72 | 1019.6 |
| 20260904070023 | 72 | 198 | 2.0 | 4.0 | 0.00 | 0.00 | 0.00 | 74 | 1019.6 |
| 20260904065529 | 71 | 198 | 1.0 | 6.0 | 0.00 | 0.00 | 0.00 | 76 | 1019.6 |
| 20260904065012 | 70 | 199 | 4.0 | 6.0 | 0.00 | 0.00 | 0.00 | 77 | 1019.6 |
| 20260904064538 | 69 | 204 | 4.0 | 4.0 | 0.00 | 0.00 | 0.00 | 78 | 1019.5 |
| 20260904064020 | 68 | 205 | 2.0 | 4.0 | 0.00 | 0.00 | 0.00 | 80 | 1019.6 |
| 20260904063546 | 68 | 205 | 2.0 | 4.0 | 0.00 | 0.00 | 0.00 | 81 | 1019.6 |
| 20260904063040 | 67 | 205 | 1.0 | 4.0 | 0.00 | 0.00 | 0.00 | 81 | 1019.6 |
| 20260904062525 | 67 | 205 | 1.0 | 3.0 | 0.00 | 0.00 | 0.00 | 82 | 1019.6 |
| 20260904062027 | 66 | 205 | 2.0 | 4.0 | 0.00 | 0.00 | 0.00 | 84 | 1019.6 |
| 20260904061533 | 66 | 205 | 3.0 | 5.0 | 0.00 | 0.00 | 0.00 | 85 | 1019.6 |
| 20260904061019 | 65 | 205 | 1.0 | 3.0 | 0.00 | 0.00 | 0.00 | 87 | 1019.6 |
| 20260904060525 | 65 | 205 | 1.0 | 3.0 | 0.00 | 0.00 | 0.00 | 88 | 1019.6 |
| 20260904060020 | 64 | 205 | 1.0 | 2.0 | 0.00 | 0.00 | 0.00 | 88 | 1019.6 |
| 20260904055527 | 64 | 205 | 1.0 | 2.0 | 0.00 | 0.00 | 0.00 | 89 | 1019.6 |
| 20260904055030 | 64 | 205 | 1.0 | 2.0 | 0.00 | 0.00 | 0.00 | 89 | 1019.5 |
| 20260904054515 | 64 | 205 | 0.0 | 2.0 | 0.00 | 0.00 | 0.00 | 89 | 1019.5 |
| 20260904054017 | 64 | 205 | 0.0 | 1.0 | 0.00 | 0.00 | 0.00 | 89 | 1019.5 |
| 20260904053522 | 63 | 205 | 0.0 | 0.0 | 0.00 | 0.00 | 0.00 | 89 | 1019.5 |
| 20260904053015 | 63 | 205 | 0.0 | 0.0 | 0.00 | 0.00 | 0.00 | 89 | 1019.4 |
| 20260904052540 | 63 | 205 | 0.0 | 1.0 | 0.00 | 0.00 | 0.00 | 89 | 1019.4 |
| 20260904052021 | 63 | 205 | 0.0 | 1.0 | 0.00 | 0.00 | 0.00 | 89 | 1019.4 |
| 20260904051526 | 63 | 205 | 0.0 | 0.0 | 0.00 | 0.00 | 0.00 | 89 | 1019.3 |
| 20260904051028 | 63 | 205 | 0.0 | 1.0 | 0.00 | 0.00 | 0.00 | 89 | 1019.2 |
| 20260904050514 | 63 | 205 | 0.0 | 1.0 | 0.00 | 0.00 | 0.00 | 89 | 1019.2 |
| 20260904050028 | 63 | 205 | 0.0 | 1.0 | 0.00 | 0.00 | 0.00 | 88 | 1019.1 |
| 20260904045518 | 63 | 205 | 0.0 | 1.0 | 0.00 | 0.00 | 0.00 | 88 | 1019.1 |
| 20260904045020 | 63 | 205 | 0.0 | 0.0 | 0.00 | 0.00 | 0.00 | 88 | 1019.1 |
| 20260904044546 | 63 | 205 | 0.0 | 0.0 | 0.00 | 0.00 | 0.00 | 88 | 1019.0 |
| 20260904044027 | 63 | 205 | 0.0 | 0.0 | 0.00 | 0.00 | 0.00 | 88 | 1019.0 |
| 20260904043532 | 63 | 205 | 0.0 | 0.0 | 0.00 | 0.00 | 0.00 | 88 | 1018.9 |
| 20260904043024 | 63 | 205 | 0.0 | 0.0 | 0.00 | 0.00 | 0.00 | 88 | 1018.9 |
| 20260904042526 | 63 | 205 | 0.0 | 1.0 | 0.00 | 0.00 | 0.00 | 88 | 1018.8 |
| 20260904042029 | 63 | 205 | 0.0 | 2.0 | 0.00 | 0.00 | 0.00 | 88 | 1018.9 |
| 20260904041536 | 63 | 205 | 1.0 | 2.0 | 0.00 | 0.00 | 0.00 | 88 | 1019.0 |
| 20260904041038 | 63 | 205 | 0.0 | 1.0 | 0.00 | 0.00 | 0.00 | 88 | 1018.9 |
| 20260904040522 | 63 | 205 | 0.0 | 1.0 | 0.00 | 0.00 | 0.00 | 88 | 1019.0 |
| 20260904040018 | 63 | 205 | 0.0 | 0.0 | 0.00 | 0.00 | 0.00 | 88 | 1019.0 |
| 20260904035524 | 63 | 205 | 0.0 | 1.0 | 0.00 | 0.00 | 0.00 | 88 | 1018.9 |
| 20260904035048 | 63 | 205 | 0.0 | 1.0 | 0.00 | 0.00 | 0.00 | 88 | 1019.0 |
| 20260904034532 | 63 | 205 | 0.0 | 0.0 | 0.00 | 0.00 | 0.00 | 88 | 1018.9 |
| 20260904034015 | 63 | 205 | 0.0 | 0.0 | 0.00 | 0.00 | 0.00 | 87 | 1018.9 |
| 20260904033520 | 63 | 205 | 0.0 | 0.0 | 0.00 | 0.00 | 0.00 | 87 | 1018.9 |
| 20260904033018 | 63 | 205 | 0.0 | 0.0 | 0.00 | 0.00 | 0.00 | 87 | 1019.0 |
| 20260904032525 | 64 | 205 | 0.0 | 0.0 | 0.00 | 0.00 | 0.00 | 87 | 1019.2 |
| 20260904032028 | 64 | 205 | 0.0 | 1.0 | 0.00 | 0.00 | 0.00 | 87 | 1019.2 |
| 20260904031515 | 64 | 205 | 0.0 | 1.0 | 0.00 | 0.00 | 0.00 | 87 | 1019.1 |
| 20260904031019 | 64 | 205 | 0.0 | 0.0 | 0.00 | 0.00 | 0.00 | 87 | 1019.2 |
| 20260904030526 | 64 | 205 | 0.0 | 0.0 | 0.00 | 0.00 | 0.00 | 87 | 1019.1 |
| 20260904030040 | 64 | 205 | 0.0 | 0.0 | 0.00 | 0.00 | 0.00 | 87 | 1019.1 |
| 20260904025525 | 64 | 205 | 0.0 | 0.0 | 0.00 | 0.00 | 0.00 | 87 | 1019.1 |
| 20260904025027 | 64 | 205 | 0.0 | 0.0 | 0.00 | 0.00 | 0.00 | 87 | 1019.1 |
| 20260904024513 | 64 | 205 | 0.0 | 0.0 | 0.00 | 0.00 | 0.00 | 87 | 1019.1 |
| 20260904024017 | 64 | 205 | 0.0 | 0.0 | 0.00 | 0.00 | 0.00 | 87 | 1019.1 |
| 20260904023522 | 64 | 205 | 0.0 | 0.0 | 0.00 | 0.00 | 0.00 | 87 | 1019.2 |
| 20260904023023 | 64 | 205 | 0.0 | 0.0 | 0.00 | 0.00 | 0.00 | 86 | 1019.1 |
| 20260904022528 | 64 | 205 | 0.0 | 0.0 | 0.00 | 0.00 | 0.00 | 86 | 1019.2 |
| 20260904022051 | 64 | 205 | 0.0 | 0.0 | 0.00 | 0.00 | 0.00 | 87 | 1019.1 |
| 20260904021537 | 64 | 205 | 0.0 | 0.0 | 0.00 | 0.00 | 0.00 | 87 | 1019.1 |
| 20260904021018 | 64 | 205 | 0.0 | 0.0 | 0.00 | 0.00 | 0.00 | 86 | 1019.1 |
| 20260904020524 | 64 | 205 | 0.0 | 0.0 | 0.00 | 0.00 | 0.00 | 86 | 1019.1 |
| 20260904020019 | 64 | 205 | 0.0 | 0.0 | 0.00 | 0.00 | 0.00 | 86 | 1019.0 |
| 20260904015527 | 64 | 205 | 0.0 | 0.0 | 0.00 | 0.00 | 0.00 | 86 | 1019.1 |
| 20260904015029 | 65 | 205 | 0.0 | 0.0 | 0.00 | 0.00 | 0.00 | 86 | 1019.1 |
| 20260904014515 | 65 | 205 | 0.0 | 0.0 | 0.00 | 0.00 | 0.00 | 86 | 1019.1 |
| 20260904014018 | 65 | 205 | 0.0 | 0.0 | 0.00 | 0.00 | 0.00 | 86 | 1019.1 |
| 20260904013526 | 65 | 205 | 0.0 | 0.0 | 0.00 | 0.00 | 0.00 | 86 | 1019.1 |
| 20260904013023 | 65 | 205 | 0.0 | 0.0 | 0.00 | 0.00 | 0.00 | 86 | 1019.0 |
| 20260904012513 | 65 | 205 | 0.0 | 0.0 | 0.00 | 0.00 | 0.00 | 86 | 1018.9 |
| 20260904012017 | 65 | 205 | 0.0 | 0.0 | 0.00 | 0.00 | 0.00 | 86 | 1018.9 |
| 20260904011524 | 65 | 205 | 0.0 | 0.0 | 0.00 | 0.00 | 0.00 | 85 | 1018.8 |
| 20260904011026 | 65 | 205 | 0.0 | 0.0 | 0.00 | 0.00 | 0.00 | 85 | 1018.8 |
| 20260904010531 | 65 | 205 | 0.0 | 0.0 | 0.00 | 0.00 | 0.00 | 85 | 1018.8 |
| 20260904010026 | 65 | 205 | 0.0 | 1.0 | 0.00 | 0.00 | 0.00 | 85 | 1018.9 |
| 20260904005530 | 65 | 205 | 0.0 | 1.0 | 0.00 | 0.00 | 0.00 | 85 | 1019.1 |
| 20260904005032 | 65 | 205 | 0.0 | 1.0 | 0.00 | 0.00 | 0.00 | 85 | 1019.1 |
| 20260904004518 | 65 | 205 | 0.0 | 0.0 | 0.00 | 0.00 | 0.00 | 85 | 1019.1 |
| 20260904004039 | 65 | 205 | 0.0 | 0.0 | 0.00 | 0.00 | 0.00 | 85 | 1019.1 |
| 20260904003522 | 66 | 205 | 0.0 | 0.0 | 0.00 | 0.00 | 0.00 | 84 | 1019.1 |
| 20260904003017 | 66 | 205 | 0.0 | 0.0 | 0.00 | 0.00 | 0.00 | 84 | 1019.1 |
| 20260904002522 | 66 | 205 | 0.0 | 1.0 | 0.00 | 0.00 | 0.00 | 84 | 1019.1 |
| 20260904002027 | 66 | 205 | 0.0 | 1.0 | 0.00 | 0.00 | 0.00 | 84 | 1019.1 |
| 20260904001553 | 66 | 205 | 0.0 | 1.0 | 0.00 | 0.00 | 0.00 | 84 | 1019.1 |
| 20260904001014 | 66 | 205 | 0.0 | 0.0 | 0.00 | 0.00 | 0.00 | 83 | 1019.2 |
| 20260904000522 | 66 | 205 | 0.0 | 1.0 | 0.00 | 0.00 | 0.00 | 83 | 1019.2 |
| 20260904000016 | 66 | 205 | 0.0 | 2.0 | 0.00 | 0.00 | 0.00 | 83 | 1019.3 |
| 20260903235521 | 66 | 205 | 1.0 | 2.0 | 0.00 | 0.00 | 0.00 | 84 | 1019.3 |
| 20260903235025 | 66 | 205 | 1.0 | 2.0 | 0.00 | 0.00 | 0.00 | 84 | 1019.3 |
| 20260903234551 | 66 | 205 | 0.0 | 1.0 | 0.00 | 0.00 | 0.00 | 84 | 1019.2 |
| 20260903234014 | 66 | 205 | 0.0 | 1.0 | 0.00 | 0.00 | 0.00 | 84 | 1019.1 |
| 20260903233520 | 66 | 205 | 0.0 | 1.0 | 0.00 | 0.00 | 0.00 | 84 | 1019.0 |
| 20260903233014 | 66 | 205 | 0.0 | 0.0 | 0.00 | 0.00 | 0.00 | 83 | 1019.1 |
| 20260903232521 | 66 | 205 | 0.0 | 1.0 | 0.00 | 0.00 | 0.00 | 83 | 1019.1 |
| 20260903232026 | 66 | 205 | 0.0 | 1.0 | 0.00 | 0.00 | 0.00 | 83 | 1019.1 |
| 20260903231515 | 67 | 205 | 0.0 | 2.0 | 0.00 | 0.00 | 0.00 | 83 | 1019.1 |
| 20260903231036 | 67 | 205 | 1.0 | 2.0 | 0.00 | 0.00 | 0.00 | 83 | 1019.0 |
| 20260903230520 | 67 | 205 | 0.0 | 0.0 | 0.00 | 0.00 | 0.00 | 83 | 1019.0 |
| 20260903230013 | 67 | 205 | 0.0 | 0.0 | 0.00 | 0.00 | 0.00 | 82 | 1019.0 |
| 20260903225519 | 67 | 205 | 0.0 | 0.0 | 0.00 | 0.00 | 0.00 | 82 | 1019.0 |
| 20260903225022 | 67 | 205 | 0.0 | 0.0 | 0.00 | 0.00 | 0.00 | 83 | 1019.1 |
| 20260903224529 | 67 | 205 | 0.0 | 1.0 | 0.00 | 0.00 | 0.00 | 82 | 1019.0 |
| 20260903224033 | 67 | 205 | 0.0 | 1.0 | 0.00 | 0.00 | 0.00 | 82 | 1019.0 |
| 20260903223518 | 67 | 205 | 0.0 | 0.0 | 0.00 | 0.00 | 0.00 | 82 | 1018.9 |
| 20260903223033 | 67 | 205 | 0.0 | 2.0 | 0.00 | 0.00 | 0.00 | 82 | 1018.9 |
| 20260903222521 | 67 | 205 | 1.0 | 3.0 | 0.00 | 0.00 | 0.00 | 83 | 1018.9 |
| 20260903222025 | 67 | 205 | 2.0 | 3.0 | 0.00 | 0.00 | 0.00 | 83 | 1019.0 |
| 20260903221516 | 67 | 205 | 0.0 | 2.0 | 0.00 | 0.00 | 0.00 | 83 | 1019.0 |
| 20260903221040 | 67 | 205 | 0.0 | 2.0 | 0.00 | 0.00 | 0.00 | 83 | 1018.9 |
| 20260903220524 | 67 | 205 | 0.0 | 1.0 | 0.00 | 0.00 | 0.00 | 83 | 1018.7 |
| 20260903220018 | 67 | 205 | 0.0 | 0.0 | 0.00 | 0.00 | 0.00 | 83 | 1018.7 |
| 20260903215524 | 67 | 205 | 0.0 | 0.0 | 0.00 | 0.00 | 0.00 | 82 | 1018.7 |
| 20260903215026 | 67 | 205 | 0.0 | 0.0 | 0.00 | 0.00 | 0.00 | 82 | 1018.7 |
| 20260903214532 | 67 | 205 | 0.0 | 1.0 | 0.00 | 0.00 | 0.00 | 82 | 1018.8 |
| 20260903214013 | 67 | 205 | 0.0 | 1.0 | 0.00 | 0.00 | 0.00 | 82 | 1018.9 |
| 20260903213521 | 67 | 205 | 0.0 | 0.0 | 0.00 | 0.00 | 0.00 | 82 | 1018.9 |
| 20260903213016 | 68 | 205 | 0.0 | 0.0 | 0.00 | 0.00 | 0.00 | 82 | 1018.9 |
| 20260903212523 | 68 | 205 | 0.0 | 2.0 | 0.00 | 0.00 | 0.00 | 81 | 1018.8 |
| 20260903212047 | 68 | 205 | 0.0 | 2.0 | 0.00 | 0.00 | 0.00 | 81 | 1018.8 |
| 20260903211513 | 68 | 205 | 0.0 | 0.0 | 0.00 | 0.00 | 0.00 | 81 | 1018.7 |
| 20260903211017 | 68 | 205 | 0.0 | 0.0 | 0.00 | 0.00 | 0.00 | 81 | 1018.6 |
| 20260903210527 | 68 | 205 | 0.0 | 0.0 | 0.00 | 0.00 | 0.00 | 80 | 1018.5 |
| 20260903210020 | 68 | 205 | 0.0 | 0.0 | 0.00 | 0.00 | 0.00 | 80 | 1018.4 |
| 20260903205525 | 69 | 205 | 0.0 | 0.0 | 0.00 | 0.00 | 0.00 | 80 | 1018.3 |
| 20260903205048 | 69 | 205 | 0.0 | 0.0 | 0.00 | 0.00 | 0.00 | 80 | 1018.4 |
| 20260903204532 | 69 | 205 | 0.0 | 0.0 | 0.00 | 0.00 | 0.00 | 79 | 1018.3 |
| 20260903204014 | 69 | 205 | 0.0 | 1.0 | 0.00 | 0.00 | 0.00 | 79 | 1018.4 |
| 20260903203520 | 69 | 205 | 0.0 | 3.0 | 0.00 | 0.00 | 0.00 | 78 | 1018.4 |
| 20260903203014 | 69 | 205 | 1.0 | 3.0 | 0.00 | 0.00 | 0.00 | 78 | 1018.4 |
| 20260903202519 | 69 | 205 | 1.0 | 2.0 | 0.00 | 0.00 | 0.00 | 79 | 1018.4 |
| 20260903202023 | 70 | 205 | 0.0 | 2.0 | 0.00 | 0.00 | 0.00 | 79 | 1018.2 |
| 20260903201529 | 70 | 205 | 1.0 | 2.0 | 0.00 | 0.00 | 0.00 | 79 | 1018.2 |
| 20260903201032 | 70 | 205 | 0.0 | 4.0 | 0.00 | 0.00 | 0.00 | 79 | 1018.1 |
| 20260903200522 | 70 | 205 | 1.0 | 4.0 | 0.00 | 0.00 | 0.00 | 79 | 1018.1 |
| 20260903200017 | 70 | 205 | 0.0 | 2.0 | 0.00 | 0.00 | 0.00 | 79 | 1018.1 |
| 20260903195524 | 70 | 205 | 0.0 | 1.0 | 0.00 | 0.00 | 0.00 | 79 | 1018.2 |
| 20260903195027 | 70 | 205 | 0.0 | 4.0 | 0.00 | 0.00 | 0.00 | 79 | 1018.1 |
| 20260903194532 | 70 | 205 | 1.0 | 4.0 | 0.00 | 0.00 | 0.00 | 78 | 1018.1 |
| 20260903194036 | 70 | 205 | 1.0 | 1.0 | 0.00 | 0.00 | 0.00 | 79 | 1018.0 |
| 20260903193522 | 70 | 205 | 0.0 | 0.0 | 0.00 | 0.00 | 0.00 | 78 | 1018.0 |
| 20260903193016 | 70 | 205 | 0.0 | 1.0 | 0.00 | 0.00 | 0.00 | 79 | 1018.0 |
| 20260903192522 | 70 | 205 | 0.0 | 2.0 | 0.00 | 0.00 | 0.00 | 78 | 1018.0 |
| 20260903192027 | 70 | 205 | 1.0 | 2.0 | 0.00 | 0.00 | 0.00 | 79 | 1017.9 |
| 20260903191514 | 70 | 205 | 0.0 | 1.0 | 0.00 | 0.00 | 0.00 | 78 | 1017.9 |
| 20260903191017 | 71 | 205 | 0.0 | 0.0 | 0.00 | 0.00 | 0.00 | 79 | 1017.9 |
| 20260903190544 | 71 | 205 | 0.0 | 0.0 | 0.00 | 0.00 | 0.00 | 78 | 1017.9 |
| 20260903190022 | 71 | 205 | 0.0 | 1.0 | 0.00 | 0.00 | 0.00 | 77 | 1017.8 |
| 20260903185527 | 71 | 205 | 0.0 | 2.0 | 0.00 | 0.00 | 0.00 | 77 | 1017.8 |
| 20260903185011 | 71 | 205 | 1.0 | 3.0 | 0.00 | 0.00 | 0.00 | 77 | 1017.7 |
| 20260903184516 | 71 | 205 | 1.0 | 3.0 | 0.00 | 0.00 | 0.00 | 78 | 1017.6 |
| 20260903184041 | 71 | 205 | 0.0 | 1.0 | 0.00 | 0.00 | 0.00 | 77 | 1017.6 |
| 20260903183525 | 71 | 205 | 0.0 | 2.0 | 0.00 | 0.00 | 0.00 | 77 | 1017.6 |
| 20260903183020 | 72 | 205 | 1.0 | 2.0 | 0.00 | 0.00 | 0.00 | 76 | 1017.5 |
| 20260903182527 | 72 | 205 | 0.0 | 1.0 | 0.00 | 0.00 | 0.00 | 76 | 1017.4 |
| 20260903182030 | 72 | 205 | 0.0 | 2.0 | 0.00 | 0.00 | 0.00 | 76 | 1017.3 |
| 20260903181517 | 72 | 205 | 1.0 | 3.0 | 0.00 | 0.00 | 0.00 | 75 | 1017.4 |
| 20260903181020 | 73 | 205 | 1.0 | 3.0 | 0.00 | 0.00 | 0.00 | 75 | 1017.3 |
| 20260903180526 | 73 | 205 | 1.0 | 2.0 | 0.00 | 0.00 | 0.00 | 75 | 1017.3 |
| 20260903180020 | 73 | 205 | 1.0 | 2.0 | 0.00 | 0.00 | 0.00 | 75 | 1017.2 |
| 20260903175530 | 73 | 205 | 0.0 | 2.0 | 0.00 | 0.00 | 0.00 | 74 | 1017.3 |
| 20260903175013 | 74 | 205 | 0.0 | 2.0 | 0.00 | 0.00 | 0.00 | 74 | 1017.2 |
| 20260903174518 | 74 | 205 | 0.0 | 1.0 | 0.00 | 0.00 | 0.00 | 73 | 1017.2 |
| 20260903174040 | 74 | 205 | 0.0 | 1.0 | 0.00 | 0.00 | 0.00 | 72 | 1017.1 |
| 20260903173527 | 75 | 205 | 0.0 | 1.0 | 0.00 | 0.00 | 0.00 | 71 | 1017.0 |
| 20260903173023 | 75 | 205 | 0.0 | 1.0 | 0.00 | 0.00 | 0.00 | 71 | 1017.0 |
| 20260903172527 | 75 | 205 | 0.0 | 1.0 | 0.00 | 0.00 | 0.00 | 71 | 1017.1 |